Regional Weather Roundup
Issued by NWS

Home | Current Version | Previous Version | Text Only | Print | Product List | Glossary On
Versions: 1 2 3 4 5 6 7 8 9 10 11 12 13 14 15 16 17 18 19 20 21 22 23 24 25 26 27 28 29 30 31 32 33 34 35 36 37 38 39 40 41 42 43 44 45 46 47 48 49 50
000
ASUS43 KOAX 202010
RWRNE

WEATHER ROUNDUP FOR NEBRASKA
NATIONAL WEATHER SERVICE OMAHA NE
200 PM CST FRI JAN 20 2017

NOTES: SATELLITE DATA IS BEING USED TO AUGMENT CLOUD COVER ABOVE
       12000 FEET.
       "FAIR" INDICATES FEW OR NO CLOUDS BELOW 12,000 FEET WITH NO
       SIGNIFICANT WEATHER AND/OR OBSTRUCTIONS TO VISIBILITY.

  * THESE STATIONS DO NOT REPORT WEATHER SUCH AS RAIN...SNOW OR FOG.

NEZ001>004-019>022-054>056-202100-
NEBRASKA PANHANDLE

CITY           SKY/WX    TMP DP  RH WIND       PRES   REMARKS
SCOTTSBLUFF    CLOUDY    42  30  62 NW18G24   29.36F
ALLIANCE       CLOUDY    42  29  59 NW13      29.33F
CHADRON        PTSUNNY   36  31  82 W10       29.35F WCI  28
KIMBALL        CLOUDY    40  29  65 NW15      29.36F WCI  32
SIDNEY         CLOUDY    42  28  57 NW18      29.35F
$$

NEZ057>060-069>072-079>082-202100-
SOUTHWEST NEBRASKA

CITY           SKY/WX    TMP DP  RH WIND       PRES   REMARKS
NORTH PLATTE   PTSUNNY   44  35  70 S7        29.36F
IMPERIAL       SUNNY     40  34  79 SE6       29.36F
LEXINGTON      CLOUDY    40  37  92 W5        29.38F
MCCOOK         CLOUDY    37  35  92 SW6       29.39F WCI  32
OGALLALA       MOSUNNY   44  37  77 CALM      29.34F
$$

NEZ005>010-023>029-035>040-094-202100-
NORTH CENTRAL NEBRASKA

CITY           SKY/WX    TMP DP  RH WIND       PRES   REMARKS
VALENTINE      CLOUDY    44  26  49 W12       29.32F
AINSWORTH      SUNNY     40  33  76 S14       29.34F WCI  32
BROKEN BOW     CLOUDY    41  38  89 SW6       29.37F
O`NEILL        CLOUDY    47  38  69 SW16      29.36F
ORD            CLOUDY    40  38  93 S7        29.38F FOG
THEDFORD       CLOUDY    36  33  87 S6        29.35F WCI  32
$$

NEZ041-046>049-061>064-073>077-083>087-202100-
SOUTH CENTRAL NEBRASKA

CITY           SKY/WX    TMP DP  RH WIND       PRES   REMARKS
GRAND ISLAND   CLOUDY    42  41  96 S8        29.41F
AURORA         CLOUDY    41  41 100 SE9       29.41F FOG
HASTINGS       CLOUDY    41  39  93 SE3       29.40F FOG
HEBRON         CLOUDY    44  44 100 SE6       29.41F FOG
HOLDREGE       FOG       39  38  97 CALM      29.38F VSB 3/4
KEARNEY *      CLOUDY    41  37  87 S7        29.39F
YORK           FOG       41  41 100 SE6       29.42F VSB 3/4
$$

NEZ011>018-030>034-042>045-202100-
NORTHEAST NEBRASKA

CITY           SKY/WX    TMP DP  RH WIND       PRES   REMARKS
NORFOLK        CLOUDY    40  39  97 S9        29.42F FOG     WCI  34
ALBION         CLOUDY   N/A N/A N/A S5        29.40F FOG
BLAIR          CLOUDY    42  42  99 SE6       29.45F FOG
FREMONT        DRIZZLE   41  41 100 SE7       29.46F
TEKAMAH        CLOUDY    42  40  92 SE8       29.47F FOG
WAYNE          CLOUDY    40  40  99 S9        29.44S WCI  35
$$

NEZ050>053-065>068-078-088>093-202100-
SOUTHEAST NEBRASKA

CITY           SKY/WX    TMP DP  RH WIND       PRES   REMARKS
LINCOLN        CLOUDY    45  43  93 SE5       29.45F
OMAHA EPPLEY   CLOUDY    44  40  85 SE9       29.47F
BEATRICE       CLOUDY    46  46 100 SE5       29.43F FOG
FALLS CITY     CLOUDY    46  45  96 E7        29.44F FOG
NEBRASKA CITY  CLOUDY    43  43 100 E8        29.45F FOG
PLATTSMOUTH    CLOUDY    43  41  93 E7        29.45F FOG
$$

NEZ044-045-051>053-067-202100-
OMAHA AREA

CITY           SKY/WX    TMP DP  RH WIND       PRES   REMARKS
OMAHA EPPLEY   CLOUDY    44  40  85 SE9       29.47F
BLAIR          CLOUDY    42  42  99 SE6       29.45F FOG
FREMONT        DRIZZLE   41  41 100 SE7       29.46F
MILLARD        CLOUDY    45  44  97 SE6       29.46F
OFFUTT AFB     CLOUDY    43  43 100 E6        29.46F
PLATTSMOUTH    CLOUDY    43  41  93 E7        29.45F FOG
WAHOO          FOG       41  40  97 E7        29.44F VSB 1/4
$$



USA.gov is the U.S. government's official web portal to all federal, state and local government web resources and services.